Regional Weather Roundup
Issued by NWS Columbia, SC

Home | Current Version | Previous Version | Text Only | Print | Product List | Glossary On
Versions: 1 2 3 4 5 6 7 8 9 10 11 12 13 14 15 16 17 18 19 20 21 22 23 24 25 26 27 28 29 30 31 32 33 34 35 36 37 38 39 40 41 42 43 44 45 46 47 48 49 50
000
ASUS42 KCAE 240810
RWRCAE
REGIONAL WEATHER ROUNDUP
NATIONAL WEATHER SERVICE COLUMBIA SC
300 AM EST MON NOV 24 2014

NOTE: "FAIR" INDICATES FEW OR NO CLOUDS BELOW 12,000 FEET WITH NO
SIGNIFICANT WEATHER AND/OR OBSTRUCTIONS TO VISIBILITY.

NOT ALL STATIONS ARE QUALITY CONTROLLED BY THE NATIONAL
WEATHER SERVICE. USE DATA WITH CAUTION...ESPECIALLY
DEWPOINT OBSERVATIONS.

SCZ001>056-GAZ040-063>065-077-240900-
...UPSTATE SOUTH CAROLINA...

CITY           SKY/WX    TMP DP  RH WIND       PRES   REMARKS
ANDERSON       CLOUDY    58  56  93 S9        29.77S
LIBERTY        CLOUDY    55  55 100 MISG      29.75S FOG
SPARTANBURG    FAIR      59  59 100 SW6       29.75S
CLEMSON        CLOUDY    59  55  87 MISG      29.77S
GREENVILLE     MOCLDY    58  55  90 SW10G21   29.76R
GREENWOOD      CLOUDY    61  58  90 SW10      29.79F
GREER          PTCLDY    57  56  96 SW10      29.73S
ROCK HILL      PTCLDY    61  56  83 SW15G23   29.77R
CHESTER        CLOUDY    63  59  88 SW5       29.78R
LAURENS        CLOUDY   N/A N/A N/A SW12G17   29.77S


...CENTRAL SOUTH CAROLINA...

CITY           SKY/WX    TMP DP  RH WIND       PRES   REMARKS
COLUMBIA APT   PTCLDY    66  61  84 SW10      29.79R
COLUMBIA OWENS PTCLDY    67  61  81 SW8       29.80R
DARLINGTON     CLOUDY    64  61  88 SW6       29.81R
FLORENCE       CLOUDY    64  62  93 S5        29.80R
MCENTIRE ANGB  CLOUDY    67  64  89 SW10      29.80R
ORANGEBURG     CLOUDY    68  64  87 SW12      29.80S
SUMTER SHAW    CLOUDY    67  65  92 SW9       29.78R
NEWBERRY       CLOUDY    61 N/A N/A SW16G22   29.81S
AIKEN          CLOUDY    64  64 100 SW9       29.83S
BARNWELL       CLOUDY    66  66 100 SW7       29.81F
CAMDEN         PTSUNNY   64  63  94 SW7       29.80R
LANCASTER      LGT RAIN  63  63 100 SW12G17   29.78R
WINNSBORO      CLOUDY    61  61 100 SW5       29.79R


...EASTERN AND COASTAL SOUTH CAROLINA...

CITY           SKY/WX    TMP DP  RH WIND       PRES   REMARKS
MYRTLE BEACH   CLOUDY    66  63  88 S8          N/A
N MYRTLE BCH   CLOUDY    63  61  93 SW9       29.84R
CONWAY         PTSUNNY   66  66 100 S7        29.82S
FLORENCE       CLOUDY    64  62  93 S5        29.80R
DARLINGTON     CLOUDY    64  61  88 SW6       29.81R
CHARLESTON APT MOCLDY    66  64  93 S8        29.84R
MOUNT PLEASANT CLOUDY    66  66 100 S9        29.83S
WALTERBORO     CLOUDY    68 N/A N/A SW6       29.83S
BEAUFORT       CLOUDY    66  65  96 S7        29.84S


...EASTERN GEORGIA...

CITY           SKY/WX    TMP DP  RH WIND       PRES   REMARKS
AUGUSTA BUSH F CLOUDY    67  62  84 SW9G17    29.80S
AUGUSTA DANIEL PTCLDY    65  61  87 SW6       29.81S
THOMSON        MOCLDY    64  64  99 S5        29.84S
WASHINGTON     FAIR      63  63 100 S5        29.79S
CLAXTON        CLOUDY    68  68 100 CALM      29.83F
SYLVANIA       CLOUDY    66  65  97 SW5       29.83S
STATESBORO     CLOUDY    66  66 100 S5        29.83S
SAVANNAH       CLOUDY    68  65  90 S6        29.85R


...SOUTHERN NORTH CAROLINA...

CITY           SKY/WX    TMP DP  RH WIND       PRES   REMARKS
CHARLOTTE      MOCLDY    61  55  81 SW12      29.76R
MONROE         CLOUDY    63  58  83 SW14      29.77R
WADESBORO      PTSUNNY   65  60  85 S8        29.78R
ROCKINGHAM     SUNNY     62  61  94 SW7       29.79S
RUTHERFORDTON  CLOUDY    56  55  98 S9        29.74S
ASHEVILLE      CLEAR     54  50  86 S17       29.72R

$$


USA.gov is the U.S. government's official web portal to all federal, state and local government web resources and services.